Location: Monfort
(47.1967°N, 0.2115°W)
Time: 12:00:19
(UTC+00:00)

Cosmos 1953 Rocket - Pass Details

Date: 24 October 2020
Orbit: 605 x 634 km, 82.5° (Epoch: 28 November)

Event Time Altitude Azimuth Distance (km) Brightness Sun altitude
Rises 18:20:25 0° 349° (NNW) 2,896 7.1 -14.8°
Reaches altitude 10° 18:22:38 10° 347° (NNW) 1,990 6.3 -15.2°
Maximum altitude 18:27:02 74° 264° (W) 651 3.8 -16.0°
Drops below altitude 10° 18:31:26 10° 179° (S) 1,992 6.2 -16.7°
Sets 18:33:40 0° 178° (S) 2,898 7.0 -17.1°
